Tracking 31027 objects as of 19-Jul-2025
HD Live streaming from Space Station
objects crossing your sky now

INSAT 3A

Track INSAT 3A now!
INSAT 3A is classified as:


NORAD ID: 27714
Int'l Code: 2003-013A
Perigee: 35,891.4 km
Apogee: 35,954.3 km
Inclination: 8.0 °
Period: 1,442.7 minutes
Semi major axis: 42293 km
RCS: 22.0529 m2 (large)
Launch date: April 9, 2003
Source: India (IND)
Launch site: FRENCH GUIANA (FRGUI)

12 C-band, 6 extended C-band, 6 Ku-band for voice, video and data transmission to West Asia, East Asia, India; augment present INSAT capacity for communication and meteorological services.
Your satellite tracking list
EUTE 33A (EB 3)
Track 1 satellite(s)




NASA's NSSDC Master Catalog

Two Line Element Set (TLE):
1 27714U 03013A   25199.37614106 -.00000168  00000-0  00000-0 0  9998
2 27714   8.0219  64.6269 0007431 338.8311 192.7468  0.99813071 81394
Source of the keplerian elements: AFSPC